| time (UTC) | temp C | wind direction | speed KPH | gust KPH | rain 1hr cm | rain 24hr cm | rain mn cm | humidity % | barometer mb |
| 20260506020503 | 18 | 193 | 0.0 | 0.0 | 0.00 | 0.00 | 0.00 | 59 | 1012.6 |
| 20260506020015 | 18 | 193 | 0.0 | 0.0 | 0.00 | 0.00 | 0.00 | 60 | 1012.5 |
| 20260506015602 | 18 | 193 | 0.0 | 0.0 | 0.00 | 0.00 | 0.00 | 60 | 1012.5 |
| 20260506015005 | 18 | 193 | 0.0 | 0.0 | 0.00 | 0.00 | 0.00 | 60 | 1012.5 |
| 20260506014508 | 18 | 193 | 0.0 | 0.0 | 0.00 | 0.00 | 0.00 | 60 | 1012.5 |
| 20260506014103 | 18 | 193 | 0.0 | 0.0 | 0.00 | 0.00 | 0.00 | 59 | 1012.5 |
| 20260506013502 | 18 | 193 | 0.0 | 0.0 | 0.00 | 0.00 | 0.00 | 60 | 1012.4 |
| 20260506013010 | 18 | 193 | 0.0 | 0.0 | 0.00 | 0.00 | 0.00 | 59 | 1012.3 |
| 20260506012604 | 18 | 193 | 0.0 | 0.0 | 0.00 | 0.00 | 0.00 | 59 | 1012.3 |
| 20260506012003 | 19 | 193 | 0.0 | 0.0 | 0.00 | 0.00 | 0.00 | 58 | 1012.3 |
| 20260506011516 | 19 | 193 | 0.0 | 0.0 | 0.00 | 0.00 | 0.00 | 58 | 1012.3 |
| 20260506011103 | 20 | 193 | 0.0 | 0.0 | 0.00 | 0.00 | 0.00 | 59 | 1012.3 |
| 20260506010506 | 20 | 193 | 0.0 | 0.0 | 0.00 | 0.00 | 0.00 | 58 | 1012.1 |
| 20260506010024 | 20 | 193 | 0.0 | 0.0 | 0.00 | 0.00 | 0.00 | 55 | 1012.1 |
| 20260506005603 | 20 | 193 | 0.0 | 0.0 | 0.00 | 0.00 | 0.00 | 54 | 1012.0 |
| 20260506005002 | 20 | 193 | 0.0 | 0.0 | 0.00 | 0.00 | 0.00 | 54 | 1012.0 |
| 20260506004508 | 20 | 193 | 0.0 | 0.0 | 0.00 | 0.00 | 0.00 | 51 | 1011.8 |
| 20260506004102 | 21 | 193 | 0.0 | 0.0 | 0.00 | 0.00 | 0.00 | 53 | 1011.9 |
| 20260506003504 | 21 | 193 | 0.0 | 0.0 | 0.00 | 0.00 | 0.00 | 50 | 1011.9 |
| 20260506003009 | 21 | 192 | 0.0 | 0.0 | 0.00 | 0.00 | 0.00 | 50 | 1011.9 |
| 20260506002602 | 21 | 214 | 0.0 | 0.0 | 0.00 | 0.00 | 0.00 | 52 | 1011.8 |
| 20260506002002 | 22 | 214 | 0.0 | 0.0 | 0.00 | 0.00 | 0.00 | 48 | 1011.8 |
| 20260506001509 | 22 | 214 | 0.0 | 0.0 | 0.00 | 0.00 | 0.00 | 47 | 1011.8 |
| 20260506001103 | 22 | 214 | 0.0 | 0.0 | 0.00 | 0.00 | 0.00 | 46 | 1011.8 |
| 20260506000502 | 22 | 214 | 0.0 | 0.0 | 0.00 | 0.00 | 0.00 | 46 | 1011.8 |
| 20260506000013 | 22 | 214 | 0.0 | 0.0 | 0.00 | 0.00 | 0.00 | 45 | 1011.7 |
| 20260505235603 | 22 | 214 | 0.0 | 0.0 | 0.00 | 0.00 | 0.00 | 46 | 1011.7 |
| 20260505235003 | 22 | 175 | 0.0 | 0.0 | 0.00 | 0.00 | 0.00 | 45 | 1011.7 |
| 20260505234508 | 23 | 241 | 0.0 | 3.2 | 0.00 | 0.00 | 0.00 | 44 | 1011.5 |
| 20260505234103 | 23 | 241 | 0.0 | 3.2 | 0.00 | 0.00 | 0.00 | 44 | 1011.4 |
| 20260505233503 | 23 | 212 | 0.0 | 3.2 | 0.00 | 0.00 | 0.00 | 43 | 1011.4 |
| 20260505233011 | 23 | 181 | 0.0 | 3.2 | 0.00 | 0.00 | 0.00 | 43 | 1011.4 |
| 20260505232604 | 23 | 198 | 0.0 | 8.0 | 0.00 | 0.00 | 0.00 | 42 | 1011.4 |
| 20260505232002 | 23 | 202 | 0.0 | 8.0 | 0.00 | 0.00 | 0.00 | 42 | 1011.3 |
| 20260505231103 | 23 | 166 | 0.0 | 3.2 | 0.00 | 0.00 | 0.00 | 41 | 1011.2 |
| 20260505230502 | 23 | 167 | 0.0 | 11.3 | 0.00 | 0.00 | 0.00 | 40 | 1011.3 |
| 20260505230009 | 23 | 209 | 0.0 | 11.3 | 0.00 | 0.00 | 0.00 | 40 | 1011.2 |
| 20260505225603 | 24 | 194 | 0.0 | 1.6 | 0.00 | 0.00 | 0.00 | 40 | 1011.3 |
| 20260505225002 | 24 | 169 | 0.0 | 8.0 | 0.00 | 0.00 | 0.00 | 39 | 1011.4 |
| 20260505224508 | 24 | 190 | 0.0 | 16.1 | 0.00 | 0.00 | 0.00 | 39 | 1011.4 |
| 20260505224104 | 24 | 222 | 0.0 | 22.5 | 0.00 | 0.00 | 0.00 | 38 | 1011.5 |
| 20260505223502 | 24 | 185 | 0.0 | 14.5 | 0.00 | 0.00 | 0.00 | 39 | 1011.5 |
| 20260505223009 | 24 | 180 | 0.0 | 11.3 | 0.00 | 0.00 | 0.00 | 39 | 1011.4 |
| 20260505222603 | 25 | 186 | 0.0 | 6.4 | 0.00 | 0.00 | 0.00 | 39 | 1011.4 |
| 20260505222002 | 25 | 184 | 0.0 | 6.4 | 0.00 | 0.00 | 0.00 | 39 | 1011.5 |
| 20260505221509 | 25 | 224 | 0.0 | 16.1 | 0.00 | 0.00 | 0.00 | 39 | 1011.6 |
| 20260505221103 | 25 | 191 | 0.0 | 16.1 | 0.00 | 0.00 | 0.00 | 38 | 1011.6 |
| 20260505220502 | 25 | 148 | 1.6 | 19.3 | 0.00 | 0.00 | 0.00 | 37 | 1011.7 |
| 20260505220009 | 25 | 151 | 1.6 | 19.3 | 0.00 | 0.00 | 0.00 | 38 | 1011.8 |
| 20260505215604 | 25 | 196 | 0.0 | 8.0 | 0.00 | 0.00 | 0.00 | 36 | 1011.8 |
| 20260505215003 | 25 | 176 | 0.0 | 22.5 | 0.00 | 0.00 | 0.00 | 37 | 1011.6 |
| 20260505214508 | 25 | 194 | 4.8 | 22.5 | 0.00 | 0.00 | 0.00 | 37 | 1011.7 |
| 20260505214102 | 25 | 195 | 1.6 | 22.5 | 0.00 | 0.00 | 0.00 | 38 | 1011.7 |
| 20260505213502 | 25 | 217 | 0.0 | 14.5 | 0.00 | 0.00 | 0.00 | 38 | 1011.7 |
| 20260505213019 | 25 | 221 | 3.2 | 17.7 | 0.00 | 0.00 | 0.00 | 39 | 1011.7 |
| 20260505212603 | 25 | 205 | 4.8 | 17.7 | 0.00 | 0.00 | 0.00 | 40 | 1011.5 |
| 20260505212003 | 25 | 198 | 1.6 | 16.1 | 0.00 | 0.00 | 0.00 | 38 | 1011.5 |
| 20260505211509 | 25 | 174 | 0.0 | 17.7 | 0.00 | 0.00 | 0.00 | 40 | 1011.6 |
| 20260505211106 | 26 | 164 | 1.6 | 17.7 | 0.00 | 0.00 | 0.00 | 38 | 1011.8 |
| 20260505210502 | 26 | 222 | 0.0 | 19.3 | 0.00 | 0.00 | 0.00 | 37 | 1012.0 |
| 20260505210009 | 26 | 209 | 0.0 | 19.3 | 0.00 | 0.00 | 0.00 | 36 | 1012.0 |
| 20260505205602 | 26 | 159 | 0.0 | 19.3 | 0.00 | 0.00 | 0.00 | 35 | 1012.0 |
| 20260505205002 | 27 | 202 | 3.2 | 24.1 | 0.00 | 0.00 | 0.00 | 34 | 1012.0 |
| 20260505204509 | 27 | 176 | 3.2 | 24.1 | 0.00 | 0.00 | 0.00 | 34 | 1012.0 |
| 20260505204102 | 27 | 210 | 1.6 | 19.3 | 0.00 | 0.00 | 0.00 | 35 | 1012.0 |
| 20260505203502 | 27 | 224 | 0.0 | 29.0 | 0.00 | 0.00 | 0.00 | 34 | 1012.0 |
| 20260505203018 | 27 | 212 | 6.4 | 29.0 | 0.00 | 0.00 | 0.00 | 34 | 1012.0 |
| 20260505202603 | 27 | 183 | 0.0 | 11.3 | 0.00 | 0.00 | 0.00 | 34 | 1011.9 |
| 20260505202006 | 27 | 154 | 1.6 | 11.3 | 0.00 | 0.00 | 0.00 | 35 | 1012.0 |
| 20260505201511 | 27 | 153 | 0.0 | 16.1 | 0.00 | 0.00 | 0.00 | 34 | 1011.9 |
| 20260505201102 | 26 | 157 | 0.0 | 17.7 | 0.00 | 0.00 | 0.00 | 37 | 1012.1 |
| 20260505200503 | 26 | 155 | 1.6 | 17.7 | 0.00 | 0.00 | 0.00 | 36 | 1012.1 |
| 20260505200008 | 26 | 195 | 0.0 | 24.1 | 0.00 | 0.00 | 0.00 | 35 | 1012.2 |
| 20260505195602 | 27 | 186 | 1.6 | 24.1 | 0.00 | 0.00 | 0.00 | 35 | 1012.2 |
| 20260505195002 | 27 | 194 | 3.2 | 19.3 | 0.00 | 0.00 | 0.00 | 33 | 1012.4 |
| 20260505194509 | 27 | 184 | 1.6 | 12.9 | 0.00 | 0.00 | 0.00 | 34 | 1012.5 |
| 20260505194103 | 27 | 283 | 4.8 | 22.5 | 0.00 | 0.00 | 0.00 | 32 | 1012.5 |
| 20260505193502 | 27 | 208 | 4.8 | 22.5 | 0.00 | 0.00 | 0.00 | 33 | 1012.6 |
| 20260505193010 | 27 | 224 | 3.2 | 11.3 | 0.00 | 0.00 | 0.00 | 36 | 1012.5 |
| 20260505192602 | 27 | 162 | 0.0 | 9.7 | 0.00 | 0.00 | 0.00 | 34 | 1012.6 |
| 20260505192005 | 27 | 167 | 0.0 | 9.7 | 0.00 | 0.00 | 0.00 | 36 | 1012.8 |
| 20260505191508 | 27 | 141 | 0.0 | 30.6 | 0.00 | 0.00 | 0.00 | 36 | 1012.7 |
| 20260505191103 | 27 | 164 | 1.6 | 30.6 | 0.00 | 0.00 | 0.00 | 35 | 1012.8 |
| 20260505190504 | 27 | 202 | 6.4 | 25.7 | 0.00 | 0.00 | 0.00 | 37 | 1013.0 |
| 20260505190008 | 27 | 143 | 1.6 | 11.3 | 0.00 | 0.00 | 0.00 | 36 | 1013.1 |
| 20260505185604 | 27 | 172 | 0.0 | 17.7 | 0.00 | 0.00 | 0.00 | 38 | 1013.1 |
| 20260505185003 | 26 | 167 | 0.0 | 22.5 | 0.00 | 0.00 | 0.00 | 36 | 1013.2 |
| 20260505184509 | 26 | 129 | 3.2 | 22.5 | 0.00 | 0.00 | 0.00 | 36 | 1013.4 |
| 20260505184102 | 26 | 151 | 4.8 | 29.0 | 0.00 | 0.00 | 0.00 | 37 | 1013.5 |
| 20260505183503 | 26 | 156 | 1.6 | 29.0 | 0.00 | 0.00 | 0.00 | 36 | 1013.7 |
| 20260505183009 | 26 | 194 | 0.0 | 17.7 | 0.00 | 0.00 | 0.00 | 38 | 1013.7 |
| 20260505182602 | 26 | 154 | 1.6 | 17.7 | 0.00 | 0.00 | 0.00 | 38 | 1013.7 |
| 20260505182002 | 26 | 143 | 0.0 | 14.5 | 0.00 | 0.00 | 0.00 | 37 | 1013.8 |
| 20260505181509 | 26 | 174 | 1.6 | 14.5 | 0.00 | 0.00 | 0.00 | 40 | 1013.8 |
| 20260505181104 | 26 | 194 | 0.0 | 9.7 | 0.00 | 0.00 | 0.00 | 38 | 1013.8 |
| 20260505180502 | 26 | 214 | 0.0 | 9.7 | 0.00 | 0.00 | 0.00 | 41 | 1013.9 |
| 20260505180009 | 26 | 171 | 0.0 | 9.7 | 0.00 | 0.00 | 0.00 | 41 | 1013.9 |
| 20260505175602 | 26 | 226 | 0.0 | 8.0 | 0.00 | 0.00 | 0.00 | 42 | 1013.9 |
| 20260505175004 | 25 | 165 | 1.6 | 6.4 | 0.00 | 0.00 | 0.00 | 41 | 1014.1 |
| 20260505174508 | 25 | 209 | 0.0 | 3.2 | 0.00 | 0.00 | 0.00 | 42 | 1014.0 |
| 20260505174104 | 25 | 183 | 0.0 | 9.7 | 0.00 | 0.00 | 0.00 | 40 | 1014.0 |
| 20260505173503 | 25 | 142 | 0.0 | 14.5 | 0.00 | 0.00 | 0.00 | 42 | 1014.1 |
| 20260505173008 | 25 | 135 | 0.0 | 14.5 | 0.00 | 0.00 | 0.00 | 40 | 1014.1 |
| 20260505172605 | 25 | 201 | 0.0 | 14.5 | 0.00 | 0.00 | 0.00 | 41 | 1014.1 |
| 20260505172003 | 25 | 162 | 0.0 | 17.7 | 0.00 | 0.00 | 0.00 | 45 | 1014.3 |
| 20260505171509 | 25 | 219 | 0.0 | 8.0 | 0.00 | 0.00 | 0.00 | 42 | 1014.2 |
| 20260505171104 | 25 | 204 | 0.0 | 8.0 | 0.00 | 0.00 | 0.00 | 42 | 1014.4 |
| 20260505170504 | 25 | 157 | 0.0 | 16.1 | 0.00 | 0.00 | 0.00 | 40 | 1014.4 |
| 20260505170016 | 25 | 146 | 3.2 | 14.5 | 0.00 | 0.00 | 0.00 | 41 | 1014.4 |
| 20260505165603 | 25 | 147 | 0.0 | 12.9 | 0.00 | 0.00 | 0.00 | 41 | 1014.4 |
| 20260505165002 | 26 | 188 | 1.6 | 11.3 | 0.00 | 0.00 | 0.00 | 40 | 1014.4 |
| 20260505164509 | 25 | 235 | 0.0 | 3.2 | 0.00 | 0.00 | 0.00 | 43 | 1014.5 |
| 20260505164103 | 25 | 191 | 0.0 | 4.8 | 0.00 | 0.00 | 0.00 | 44 | 1014.5 |
| 20260505163502 | 25 | 143 | 0.0 | 4.8 | 0.00 | 0.00 | 0.00 | 44 | 1014.5 |
| 20260505163011 | 25 | 183 | 0.0 | 3.2 | 0.00 | 0.00 | 0.00 | 45 | 1014.5 |
| 20260505162603 | 25 | 194 | 0.0 | 4.8 | 0.00 | 0.00 | 0.00 | 47 | 1014.6 |
| 20260505162003 | 25 | 224 | 0.0 | 6.4 | 0.00 | 0.00 | 0.00 | 44 | 1014.6 |
| 20260505161509 | 25 | 192 | 0.0 | 1.6 | 0.00 | 0.00 | 0.00 | 45 | 1014.6 |
| 20260505161102 | 25 | 181 | 0.0 | 8.0 | 0.00 | 0.00 | 0.00 | 49 | 1014.7 |
| 20260505160503 | 24 | 152 | 0.0 | 20.9 | 0.00 | 0.00 | 0.00 | 49 | 1014.8 |
| 20260505153008 | 23 | 171 | 0.0 | 8.0 | 0.00 | 0.00 | 0.00 | 51 | 1015.0 |
| 20260505152602 | 23 | 154 | 0.0 | 8.0 | 0.00 | 0.00 | 0.00 | 54 | 1014.9 |
| 20260505152004 | 23 | 195 | 0.0 | 3.2 | 0.00 | 0.00 | 0.00 | 53 | 1015.1 |
| 20260505151509 | 22 | 198 | 0.0 | 12.9 | 0.00 | 0.00 | 0.00 | 54 | 1015.0 |
| 20260505151105 | 22 | 174 | 0.0 | 12.9 | 0.00 | 0.00 | 0.00 | 53 | 1015.0 |
| 20260505150505 | 22 | 195 | 0.0 | 3.2 | 0.00 | 0.00 | 0.00 | 55 | 1015.0 |
| 20260505140502 | 18 | 208 | 0.0 | 3.2 | 0.00 | 0.00 | 0.00 | 67 | 1015.0 |
| 20260505125004 | 15 | 198 | 0.0 | 12.9 | 0.00 | 0.00 | 0.00 | 79 | 1015.1 |
| 20260505124509 | 14 | 188 | 0.0 | 6.4 | 0.00 | 0.00 | 0.00 | 81 | 1015.1 |
| 20260505124103 | 13 | 186 | 0.0 | 4.8 | 0.00 | 0.00 | 0.00 | 82 | 1015.0 |
| 20260505123502 | 13 | 176 | 0.0 | 0.0 | 0.00 | 0.00 | 0.00 | 83 | 1014.9 |
| 20260505123009 | 13 | 186 | 0.0 | 0.0 | 0.00 | 0.00 | 0.00 | 84 | 1015.0 |
| 20260505122602 | 13 | 159 | 0.0 | 0.0 | 0.00 | 0.00 | 0.00 | 85 | 1014.9 |
| 20260505122003 | 12 | 170 | 0.0 | 0.0 | 0.00 | 0.00 | 0.00 | 86 | 1015.0 |
| 20260505121510 | 12 | 247 | 0.0 | 0.0 | 0.00 | 0.00 | 0.00 | 86 | 1014.9 |
| 20260505121102 | 12 | 183 | 0.0 | 0.0 | 0.00 | 0.00 | 0.00 | 87 | 1014.9 |
| 20260505120503 | 12 | 203 | 0.0 | 0.0 | 0.00 | 0.00 | 0.00 | 88 | 1014.9 |
| 20260505120030 | 11 | 198 | 0.0 | 0.0 | 0.00 | 0.00 | 0.00 | 88 | 1014.9 |
| 20260505115602 | 11 | 208 | 0.0 | 0.0 | 0.00 | 0.00 | 0.00 | 89 | 1015.0 |
| 20260505115003 | 11 | 207 | 0.0 | 0.0 | 0.00 | 0.00 | 0.00 | 89 | 1014.9 |
| 20260505114511 | 11 | 199 | 0.0 | 0.0 | 0.00 | 0.00 | 0.00 | 89 | 1014.8 |
| 20260505114102 | 10 | 183 | 0.0 | 0.0 | 0.00 | 0.00 | 0.00 | 89 | 1014.7 |
| 20260505113502 | 10 | 185 | 0.0 | 0.0 | 0.00 | 0.00 | 0.00 | 89 | 1014.8 |
| 20260505113008 | 10 | 228 | 0.0 | 0.0 | 0.00 | 0.00 | 0.00 | 89 | 1014.8 |
| 20260505112602 | 10 | 196 | 0.0 | 0.0 | 0.00 | 0.00 | 0.00 | 88 | 1014.6 |
| 20260505112002 | 10 | 195 | 0.0 | 0.0 | 0.00 | 0.00 | 0.00 | 88 | 1014.7 |
| 20260505111509 | 10 | 195 | 0.0 | 0.0 | 0.00 | 0.00 | 0.00 | 88 | 1014.6 |
| 20260505111103 | 10 | 195 | 0.0 | 0.0 | 0.00 | 0.00 | 0.00 | 88 | 1014.6 |
| 20260505110502 | 10 | 195 | 0.0 | 0.0 | 0.00 | 0.00 | 0.00 | 88 | 1014.7 |
| 20260505102006 | 10 | 238 | 0.0 | 0.0 | 0.00 | 0.00 | 0.00 | 85 | 1014.5 |
| 20260505101519 | 10 | 238 | 0.0 | 0.0 | 0.00 | 0.00 | 0.00 | 85 | 1014.5 |
| 20260505101104 | 10 | 238 | 0.0 | 0.0 | 0.00 | 0.00 | 0.00 | 85 | 1014.5 |
| 20260505100503 | 10 | 238 | 0.0 | 0.0 | 0.00 | 0.00 | 0.00 | 84 | 1014.5 |
| 20260505100019 | 11 | 238 | 0.0 | 0.0 | 0.00 | 0.00 | 0.00 | 84 | 1014.4 |
| 20260505095603 | 11 | 238 | 0.0 | 0.0 | 0.00 | 0.00 | 0.00 | 84 | 1014.4 |
| 20260505095003 | 11 | 238 | 0.0 | 0.0 | 0.00 | 0.00 | 0.00 | 83 | 1014.4 |
| 20260505094510 | 11 | 238 | 0.0 | 0.0 | 0.00 | 0.00 | 0.00 | 83 | 1014.3 |
| 20260505094104 | 11 | 238 | 0.0 | 0.0 | 0.00 | 0.00 | 0.00 | 83 | 1014.3 |
| 20260505093504 | 11 | 238 | 0.0 | 0.0 | 0.00 | 0.00 | 0.00 | 83 | 1014.3 |
| 20260505093009 | 11 | 238 | 0.0 | 0.0 | 0.00 | 0.00 | 0.00 | 83 | 1014.3 |
| 20260505092604 | 11 | 238 | 0.0 | 0.0 | 0.00 | 0.00 | 0.00 | 83 | 1014.2 |
| 20260505092003 | 11 | 238 | 0.0 | 0.0 | 0.00 | 0.00 | 0.00 | 82 | 1014.1 |
| 20260505091522 | 11 | 238 | 0.0 | 0.0 | 0.00 | 0.00 | 0.00 | 82 | 1014.1 |
| 20260505091105 | 11 | 238 | 0.0 | 0.0 | 0.00 | 0.00 | 0.00 | 82 | 1013.9 |
| 20260505090503 | 11 | 195 | 0.0 | 0.0 | 0.00 | 0.00 | 0.00 | 81 | 1013.8 |
| 20260505090026 | 11 | 195 | 0.0 | 0.0 | 0.00 | 0.00 | 0.00 | 81 | 1013.9 |
| 20260505085604 | 11 | 195 | 0.0 | 0.0 | 0.00 | 0.00 | 0.00 | 81 | 1013.9 |
| 20260505085004 | 12 | 195 | 0.0 | 0.0 | 0.00 | 0.00 | 0.00 | 80 | 1013.8 |
| 20260505084510 | 12 | 195 | 0.0 | 0.0 | 0.00 | 0.00 | 0.00 | 79 | 1013.8 |
| 20260505084103 | 12 | 195 | 0.0 | 0.0 | 0.00 | 0.00 | 0.00 | 79 | 1013.8 |
| 20260505083507 | 12 | 195 | 0.0 | 0.0 | 0.00 | 0.00 | 0.00 | 78 | 1013.8 |
| 20260505083009 | 12 | 195 | 0.0 | 0.0 | 0.00 | 0.00 | 0.00 | 78 | 1013.7 |
| 20260505082604 | 12 | 195 | 0.0 | 0.0 | 0.00 | 0.00 | 0.00 | 78 | 1013.7 |
| 20260505082004 | 12 | 195 | 0.0 | 0.0 | 0.00 | 0.00 | 0.00 | 77 | 1013.6 |
| 20260505081514 | 12 | 195 | 0.0 | 0.0 | 0.00 | 0.00 | 0.00 | 76 | 1013.6 |
| 20260505081104 | 12 | 195 | 0.0 | 0.0 | 0.00 | 0.00 | 0.00 | 77 | 1013.6 |
| 20260505080504 | 12 | 195 | 0.0 | 0.0 | 0.00 | 0.00 | 0.00 | 76 | 1013.5 |
| 20260505080010 | 12 | 180 | 0.0 | 0.0 | 0.00 | 0.00 | 0.00 | 75 | 1013.5 |
| 20260505075603 | 12 | 180 | 0.0 | 0.0 | 0.00 | 0.00 | 0.00 | 76 | 1013.4 |
| 20260505075003 | 12 | 181 | 0.0 | 0.0 | 0.00 | 0.00 | 0.00 | 75 | 1013.5 |
| 20260505074510 | 13 | 181 | 0.0 | 0.0 | 0.00 | 0.00 | 0.00 | 74 | 1013.4 |
| 20260505074105 | 13 | 184 | 0.0 | 0.0 | 0.00 | 0.00 | 0.00 | 74 | 1013.4 |
| 20260505073503 | 13 | 200 | 0.0 | 0.0 | 0.00 | 0.00 | 0.00 | 74 | 1013.4 |
| 20260505073014 | 13 | 162 | 0.0 | 0.0 | 0.00 | 0.00 | 0.00 | 74 | 1013.4 |
| 20260505072605 | 13 | 162 | 0.0 | 0.0 | 0.00 | 0.00 | 0.00 | 73 | 1013.4 |
| 20260505072003 | 13 | 162 | 0.0 | 0.0 | 0.00 | 0.00 | 0.00 | 73 | 1013.4 |
| 20260505071516 | 13 | 161 | 0.0 | 0.0 | 0.00 | 0.00 | 0.00 | 72 | 1013.3 |
| 20260505071104 | 13 | 161 | 0.0 | 0.0 | 0.00 | 0.00 | 0.00 | 73 | 1013.4 |
| 20260505070507 | 13 | 160 | 0.0 | 0.0 | 0.00 | 0.00 | 0.00 | 72 | 1013.3 |
| 20260505070010 | 13 | 191 | 0.0 | 0.0 | 0.00 | 0.00 | 0.00 | 71 | 1013.3 |
| 20260505065604 | 13 | 191 | 0.0 | 0.0 | 0.00 | 0.00 | 0.00 | 70 | 1013.4 |
| 20260505065004 | 13 | 169 | 0.0 | 1.6 | 0.00 | 0.00 | 0.00 | 71 | 1013.3 |
| 20260505064525 | 13 | 190 | 0.0 | 1.6 | 0.00 | 0.00 | 0.00 | 70 | 1013.3 |
| 20260505064103 | 13 | 179 | 0.0 | 0.0 | 0.00 | 0.00 | 0.00 | 69 | 1013.3 |
| 20260505063503 | 13 | 181 | 0.0 | 3.2 | 0.00 | 0.00 | 0.00 | 69 | 1013.3 |
| 20260505063010 | 13 | 193 | 0.0 | 3.2 | 0.00 | 0.00 | 0.00 | 68 | 1013.3 |
| 20260505062604 | 13 | 193 | 0.0 | 0.0 | 0.00 | 0.00 | 0.00 | 68 | 1013.3 |
| 20260505062003 | 13 | 193 | 0.0 | 1.6 | 0.00 | 0.00 | 0.00 | 67 | 1013.3 |
| 20260505061524 | 13 | 193 | 0.0 | 0.0 | 0.00 | 0.00 | 0.00 | 66 | 1013.4 |
| 20260505061104 | 13 | 193 | 0.0 | 0.0 | 0.00 | 0.00 | 0.00 | 65 | 1013.4 |
| 20260505060503 | 14 | 193 | 0.0 | 1.6 | 0.00 | 0.00 | 0.00 | 65 | 1013.4 |
| 20260505060010 | 14 | 193 | 0.0 | 1.6 | 0.00 | 0.00 | 0.00 | 64 | 1013.4 |
| 20260505055604 | 14 | 193 | 0.0 | 1.6 | 0.00 | 0.00 | 0.00 | 64 | 1013.4 |
| 20260505055006 | 14 | 188 | 0.0 | 1.6 | 0.00 | 0.00 | 0.00 | 63 | 1013.4 |
| 20260505054509 | 14 | 175 | 0.0 | 1.6 | 0.00 | 0.00 | 0.00 | 63 | 1013.3 |
| 20260505054103 | 14 | 175 | 0.0 | 1.6 | 0.00 | 0.00 | 0.00 | 62 | 1013.2 |
| 20260505053507 | 14 | 191 | 0.0 | 0.0 | 0.00 | 0.00 | 0.00 | 61 | 1013.3 |
| 20260505053009 | 14 | 228 | 0.0 | 0.0 | 0.00 | 0.00 | 0.00 | 61 | 1013.3 |
| 20260505052604 | 14 | 229 | 0.0 | 0.0 | 0.00 | 0.00 | 0.00 | 62 | 1013.4 |
| 20260505052002 | 14 | 191 | 0.0 | 0.0 | 0.00 | 0.00 | 0.00 | 63 | 1013.5 |
| 20260505051510 | 14 | 191 | 0.0 | 1.6 | 0.00 | 0.00 | 0.00 | 61 | 1013.5 |
| 20260505051105 | 14 | 191 | 0.0 | 1.6 | 0.00 | 0.00 | 0.00 | 61 | 1013.6 |
| 20260505050503 | 14 | 191 | 0.0 | 0.0 | 0.00 | 0.00 | 0.00 | 61 | 1013.6 |
| 20260505041512 | 13 | 235 | 0.0 | 0.0 | 0.00 | 0.00 | 0.00 | 66 | 1013.5 |
| 20260505041103 | 13 | 160 | 0.0 | 0.0 | 0.00 | 0.00 | 0.00 | 66 | 1013.4 |
| 20260505040511 | 13 | 160 | 0.0 | 0.0 | 0.00 | 0.00 | 0.00 | 67 | 1013.4 |
| 20260505035503 | 13 | 160 | 0.0 | 0.0 | 0.00 | 0.00 | 0.00 | 67 | 1013.4 |
| 20260505035010 | 13 | 160 | 0.0 | 0.0 | 0.00 | 0.00 | 0.00 | 66 | 1013.5 |
| 20260505034603 | 13 | 160 | 0.0 | 0.0 | 0.00 | 0.00 | 0.00 | 64 | 1013.5 |
| 20260505034006 | 14 | 160 | 0.0 | 0.0 | 0.00 | 0.00 | 0.00 | 64 | 1013.5 |
| 20260505033510 | 14 | 160 | 0.0 | 0.0 | 0.00 | 0.00 | 0.00 | 63 | 1013.5 |
| 20260505033105 | 14 | 160 | 0.0 | 0.0 | 0.00 | 0.00 | 0.00 | 62 | 1013.6 |
| 20260505032504 | 14 | 160 | 0.0 | 0.0 | 0.00 | 0.00 | 0.00 | 62 | 1013.6 |
| 20260505032011 | 14 | 160 | 0.0 | 0.0 | 0.00 | 0.00 | 0.00 | 61 | 1013.6 |
| 20260505031611 | 14 | 160 | 0.0 | 0.0 | 0.00 | 0.00 | 0.00 | 61 | 1013.7 |
| 20260505031003 | 14 | 198 | 0.0 | 0.0 | 0.00 | 0.00 | 0.00 | 61 | 1013.6 |
| 20260505030510 | 15 | 198 | 0.0 | 0.0 | 0.00 | 0.00 | 0.00 | 60 | 1013.6 |
| 20260505025504 | 15 | 198 | 0.0 | 0.0 | 0.00 | 0.00 | 0.00 | 59 | 1013.6 |
| 20260505025009 | 15 | 198 | 0.0 | 0.0 | 0.00 | 0.00 | 0.00 | 58 | 1013.6 |
| 20260505024603 | 15 | 198 | 0.0 | 0.0 | 0.00 | 0.00 | 0.00 | 60 | 1013.6 |
| 20260505024009 | 15 | 198 | 0.0 | 0.0 | 0.00 | 0.00 | 0.00 | 59 | 1013.6 |
| 20260505023603 | 15 | 198 | 0.0 | 0.0 | 0.00 | 0.00 | 0.00 | 59 | 1013.6 |
| 20260505023006 | 15 | 198 | 0.0 | 0.0 | 0.00 | 0.00 | 0.00 | 59 | 1013.5 |
| 20260505022509 | 15 | 198 | 0.0 | 0.0 | 0.00 | 0.00 | 0.00 | 59 | 1013.5 |
| 20260505022104 | 15 | 198 | 0.0 | 0.0 | 0.00 | 0.00 | 0.00 | 58 | 1013.4 |
| 20260505021504 | 15 | 198 | 0.0 | 0.0 | 0.00 | 0.00 | 0.00 | 57 | 1013.4 |
| 20260505021012 | 15 | 198 | 0.0 | 0.0 | 0.00 | 0.00 | 0.00 | 57 | 1013.4 |
| 20260505020603 | 15 | 198 | 0.0 | 0.0 | 0.00 | 0.00 | 0.00 | 57 | 1013.4 |